THORAD AGENA D DEB, 4645

Orbit data source: Space-Track

THORAD AGENA D DEB, 4645 is space debris in SSO originally from a launch on Wed, 08 Apr 1970 UTC launched from the Air Force Western Test Range (AFWTR). Debris objects in space refer to the collection of defunct objects orbiting the Earth. Examples of debris include non-operational satellites, rocket bodies, and fragments generated from explosions, collisions, or faulty payload assembly.

Loading next visibility...
Identifier
4645, 1970-025AD
Orbit
SSO
Country
Flag of USUS
Related business
Manufacturer
Unknown
Mission
Spacecraft
Bus & Motor
Unknown
Mass
Unknown
Launch date (UTC)
1970-04-08 (56 years ago)
Launch vehicle
Unknown
Launch site
Air Force Western Test Range (AFWTR)
Object type
Payload
Rocket body
Debris
Shape & HBR
Unknown shape, 0.1 m
Radar Cross Section
Small (<0.1 m²)

Expand to show TLE details & history
Last TLE update: 13 hours ago

TLE from 13 hours ago
0 THORAD AGENA D DEB
1 04645U 70025AD  26123.82148223  .00000040  00000-0  25158-3 0  9995
2 04645  99.8924 178.9583 0327318 343.8677  65.8150 12.86608333629726
Epoch: 2026-05-03T19:42Z
TLE epoch observation values (Epoch: 2026-05-03T19:42:56.064Z)
Latitude
52.13388°
Longitude
8.61081°
Altitude
1,227.146 km
Speed
7.291 km/s
True Right ascension
11h 04m 15s
True Declination
51° 58' 39"
Sunlit
Object was in daylight at epoch
Visualization orbit readout
Latitude
Unknown
Longitude
Unknown
Altitude
Unknown
Speed
Unknown
Apparent Right ascension
Unknown
Apparent Declination
Unknown
Sunlit
N/A
Visualization observer readout
Local Sidereal Time
16:49:27
Azimuth
Unknown
Elevation
Unknown
Doppler factor
Unknown
Orbital elements
Apogee altitude
1,564.132 km
Perigee altitude
1,060.681 km
Semi-major axis
7,690.543 km
Eccentricity
0.03273
Inclination
99.8924°
RAAN
178.9583°
Arg. of periapsis
343.8677°
True anomaly
69.29272°
Mean anomaly
65.815°
Eccentric anomaly
67.54824°
Mean motion
3.21816 °/min
Orbital period
111.87 mins
BSTAR
0.00025158
Loading maneuver chart data...
Computing Atmospheric mass density...

Documentation

Showing up to 5 results
|